Year,Month,Day,Hour,Minute,Value (Times are PST for temperature in C)
2015,05,21,00,00,13.40
2015,05,21,00,01,13.30
2015,05,21,00,02,13.30
2015,05,21,00,03,13.30
2015,05,21,00,04,13.30
2015,05,21,00,05,13.30
2015,05,21,00,06,13.30
2015,05,21,00,07,13.30
2015,05,21,00,08,13.30
2015,05,21,00,09,13.40
2015,05,21,00,10,13.40
2015,05,21,00,11,13.40
2015,05,21,00,12,13.40
2015,05,21,00,13,13.40
2015,05,21,00,14,13.40
2015,05,21,00,15,13.40
2015,05,21,00,16,13.40
2015,05,21,00,17,13.40
2015,05,21,00,18,13.40
2015,05,21,00,19,13.40
2015,05,21,00,20,13.30
2015,05,21,00,21,13.30
2015,05,21,00,22,13.20
2015,05,21,00,23,13.20
2015,05,21,00,24,13.20
2015,05,21,00,25,13.10
2015,05,21,00,26,13.10
2015,05,21,00,27,13.10
2015,05,21,00,28,13.10
2015,05,21,00,29,13.10
2015,05,21,00,30,13.10
2015,05,21,00,31,13.10
2015,05,21,00,32,13.10
2015,05,21,00,33,13.10
2015,05,21,00,34,13.10
2015,05,21,00,35,13.10
2015,05,21,00,36,13.10
2015,05,21,00,37,13.10
2015,05,21,00,38,13.10
2015,05,21,00,39,13.00
2015,05,21,00,40,13.00
2015,05,21,00,41,13.00
2015,05,21,00,42,13.00
2015,05,21,00,43,13.00
2015,05,21,00,44,13.00
2015,05,21,00,45,13.00
2015,05,21,00,46,12.90
2015,05,21,00,47,12.90
2015,05,21,00,48,12.90
2015,05,21,00,49,12.90
2015,05,21,00,50,12.80
2015,05,21,00,51,12.80
2015,05,21,00,52,12.80
2015,05,21,00,53,12.80
2015,05,21,00,54,12.80
2015,05,21,00,55,12.80
2015,05,21,00,56,12.80
2015,05,21,00,57,12.80
2015,05,21,00,58,12.80
2015,05,21,00,59,12.80
2015,05,21,01,00,12.80
2015,05,21,01,01,12.80
2015,05,21,01,02,12.80
2015,05,21,01,03,12.80
2015,05,21,01,04,12.80
2015,05,21,01,05,12.80
2015,05,21,01,06,12.90
2015,05,21,01,07,12.80
2015,05,21,01,08,12.80
2015,05,21,01,09,12.80
2015,05,21,01,10,12.80
2015,05,21,01,11,12.80
2015,05,21,01,12,12.80
2015,05,21,01,13,12.80
2015,05,21,01,14,12.80
2015,05,21,01,15,12.80
2015,05,21,01,16,12.80
2015,05,21,01,17,12.80
2015,05,21,01,18,12.80
2015,05,21,01,19,12.80
2015,05,21,01,20,12.80
2015,05,21,01,21,12.80
2015,05,21,01,22,12.80
2015,05,21,01,23,12.80
2015,05,21,01,24,12.80
2015,05,21,01,25,12.80
2015,05,21,01,26,12.80
2015,05,21,01,27,12.80
2015,05,21,01,28,12.80
2015,05,21,01,29,12.80
2015,05,21,01,30,12.80
2015,05,21,01,31,12.80
2015,05,21,01,32,12.80
2015,05,21,01,33,12.80
2015,05,21,01,34,12.80
2015,05,21,01,35,12.80
2015,05,21,01,36,12.80
2015,05,21,01,37,12.80
2015,05,21,01,38,12.80
2015,05,21,01,39,12.80
2015,05,21,01,40,12.80
2015,05,21,01,41,12.80
2015,05,21,01,42,12.80
2015,05,21,01,43,12.80
2015,05,21,01,44,12.80
2015,05,21,01,45,12.80
2015,05,21,01,46,12.80
2015,05,21,01,47,12.80
2015,05,21,01,48,12.80
2015,05,21,01,49,12.80
2015,05,21,01,50,12.80
2015,05,21,01,51,12.80
2015,05,21,01,52,12.80
2015,05,21,01,53,12.80
2015,05,21,01,54,12.80
2015,05,21,01,55,12.80
2015,05,21,01,56,12.80
2015,05,21,01,57,12.90
2015,05,21,01,58,12.80
2015,05,21,01,59,12.80
2015,05,21,02,00,12.80
2015,05,21,02,01,12.80
2015,05,21,02,02,12.80
2015,05,21,02,03,12.80
2015,05,21,02,04,12.80
2015,05,21,02,05,12.80
2015,05,21,02,06,12.80
2015,05,21,02,07,12.80
2015,05,21,02,08,12.80
2015,05,21,02,09,12.80
2015,05,21,02,10,12.80
2015,05,21,02,11,12.70
2015,05,21,02,12,12.70
2015,05,21,02,13,12.70
2015,05,21,02,14,12.70
2015,05,21,02,15,12.70
2015,05,21,02,16,12.70
2015,05,21,02,17,12.70
2015,05,21,02,18,12.70
2015,05,21,02,19,12.70
2015,05,21,02,20,12.60
2015,05,21,02,21,12.60
2015,05,21,02,22,12.60
2015,05,21,02,23,12.60
2015,05,21,02,24,12.60
2015,05,21,02,25,12.60
2015,05,21,02,26,12.60
2015,05,21,02,27,12.60
2015,05,21,02,28,12.60
2015,05,21,02,29,12.60
2015,05,21,02,30,12.60
2015,05,21,02,31,12.60
2015,05,21,02,32,12.60
2015,05,21,02,33,12.60
2015,05,21,02,34,12.60
2015,05,21,02,35,12.60
2015,05,21,02,36,12.50
2015,05,21,02,37,12.50
2015,05,21,02,38,12.50
2015,05,21,02,39,12.50
2015,05,21,02,40,12.50
2015,05,21,02,41,12.50
2015,05,21,02,42,12.50
2015,05,21,02,43,12.50
2015,05,21,02,44,12.50
2015,05,21,02,45,12.40
2015,05,21,02,46,12.40
2015,05,21,02,47,12.40
2015,05,21,02,48,12.50
2015,05,21,02,49,12.50
2015,05,21,02,50,12.60
2015,05,21,02,51,12.60
2015,05,21,02,52,12.70
2015,05,21,02,53,12.70
2015,05,21,02,54,12.70
2015,05,21,02,55,12.70
2015,05,21,02,56,12.70
2015,05,21,02,57,12.70
2015,05,21,02,58,12.80
2015,05,21,02,59,12.80
2015,05,21,03,00,12.80
2015,05,21,03,01,12.70
2015,05,21,03,02,12.70
2015,05,21,03,03,12.70
2015,05,21,03,04,12.60
2015,05,21,03,05,12.70
2015,05,21,03,06,12.80
2015,05,21,03,07,12.90
2015,05,21,03,08,12.90
2015,05,21,03,09,13.00
2015,05,21,03,10,13.10
2015,05,21,03,11,13.10
2015,05,21,03,12,13.10
2015,05,21,03,13,13.10
2015,05,21,03,14,13.10
2015,05,21,03,15,13.10
2015,05,21,03,16,13.10
2015,05,21,03,17,13.10
2015,05,21,03,18,13.10
2015,05,21,03,19,13.10
2015,05,21,03,20,13.20
2015,05,21,03,21,13.20
2015,05,21,03,22,13.20
2015,05,21,03,23,13.30
2015,05,21,03,24,13.30
2015,05,21,03,25,13.30
2015,05,21,03,26,13.20
2015,05,21,03,27,13.20
2015,05,21,03,28,13.10
2015,05,21,03,29,13.10
2015,05,21,03,30,13.00
2015,05,21,03,31,13.00
2015,05,21,03,32,12.90
2015,05,21,03,33,12.90
2015,05,21,03,34,12.80
2015,05,21,03,35,12.70
2015,05,21,03,36,12.60
2015,05,21,03,37,12.60
2015,05,21,03,38,12.50
2015,05,21,03,39,12.40
2015,05,21,03,40,12.30
2015,05,21,03,41,12.30
2015,05,21,03,42,12.30
2015,05,21,03,43,12.20
2015,05,21,03,44,12.20
2015,05,21,03,45,12.20
2015,05,21,03,46,12.20
2015,05,21,03,47,12.20
2015,05,21,03,48,12.20
2015,05,21,03,49,12.10
2015,05,21,03,50,12.00
2015,05,21,03,51,12.00
2015,05,21,03,52,11.90
2015,05,21,03,53,12.00
2015,05,21,03,54,12.00
2015,05,21,03,55,12.00
2015,05,21,03,56,12.00
2015,05,21,03,57,12.00
2015,05,21,03,58,12.00
2015,05,21,03,59,12.00
2015,05,21,04,00,12.10
2015,05,21,04,01,12.10
2015,05,21,04,02,12.10
2015,05,21,04,03,12.20
2015,05,21,04,04,12.20
2015,05,21,04,05,12.20
2015,05,21,04,06,12.20
2015,05,21,04,07,12.10
2015,05,21,04,08,12.10
2015,05,21,04,09,12.10
2015,05,21,04,10,12.10
2015,05,21,04,11,12.10
2015,05,21,04,12,12.10
2015,05,21,04,13,12.10
2015,05,21,04,14,12.10
2015,05,21,04,15,12.20
2015,05,21,04,16,12.20
2015,05,21,04,17,12.20
2015,05,21,04,18,12.20
2015,05,21,04,19,12.20
2015,05,21,04,20,12.20
2015,05,21,04,21,12.20
2015,05,21,04,22,12.20
2015,05,21,04,23,12.20
2015,05,21,04,24,12.20
2015,05,21,04,25,12.20
2015,05,21,04,26,12.20
2015,05,21,04,27,12.20
2015,05,21,04,28,12.20
2015,05,21,04,29,12.20
2015,05,21,04,30,12.20
2015,05,21,04,31,12.20
2015,05,21,04,32,12.20
2015,05,21,04,33,12.20
2015,05,21,04,34,12.20
2015,05,21,04,35,12.10
2015,05,21,04,36,12.10
2015,05,21,04,37,12.10
2015,05,21,04,38,12.10
2015,05,21,04,39,12.10
2015,05,21,04,40,12.10
2015,05,21,04,41,12.10
2015,05,21,04,42,12.10
2015,05,21,04,43,12.10
2015,05,21,04,44,12.10
2015,05,21,04,45,12.10
2015,05,21,04,46,12.10
2015,05,21,04,47,12.10
2015,05,21,04,48,12.10
2015,05,21,04,49,12.00
2015,05,21,04,50,12.00
2015,05,21,04,51,12.00
2015,05,21,04,52,12.00
2015,05,21,04,53,12.00
2015,05,21,04,54,12.00
2015,05,21,04,55,11.90
2015,05,21,04,56,11.90
2015,05,21,04,57,11.90
2015,05,21,04,58,11.90
2015,05,21,04,59,11.90
2015,05,21,05,00,11.90
2015,05,21,05,01,11.90
2015,05,21,05,02,11.90
2015,05,21,05,03,11.90
2015,05,21,05,04,11.90
2015,05,21,05,05,11.90
2015,05,21,05,06,11.90
2015,05,21,05,07,11.90
2015,05,21,05,08,11.90
2015,05,21,05,09,11.90
2015,05,21,05,10,11.90
2015,05,21,05,11,11.90
2015,05,21,05,12,11.90
2015,05,21,05,13,11.90
2015,05,21,05,14,12.00
2015,05,21,05,15,12.00
2015,05,21,05,16,12.00
2015,05,21,05,17,12.10
2015,05,21,05,18,12.10
2015,05,21,05,19,12.20
2015,05,21,05,20,12.30
2015,05,21,05,21,12.30
2015,05,21,05,22,12.30
2015,05,21,05,23,12.30
2015,05,21,05,24,12.30
2015,05,21,05,25,12.30
2015,05,21,05,26,12.30
2015,05,21,05,27,12.30
2015,05,21,05,28,12.30
2015,05,21,05,29,12.30
2015,05,21,05,30,12.30
2015,05,21,05,31,12.30
2015,05,21,05,32,12.30
2015,05,21,05,33,12.20
2015,05,21,05,34,12.20
2015,05,21,05,35,12.20
2015,05,21,05,36,12.20
2015,05,21,05,37,12.20
2015,05,21,05,38,12.20
2015,05,21,05,39,12.20
2015,05,21,05,40,12.10
2015,05,21,05,41,12.10
2015,05,21,05,42,12.10
2015,05,21,05,43,12.10
2015,05,21,05,44,12.10
2015,05,21,05,45,12.10
2015,05,21,05,46,12.10
2015,05,21,05,47,12.10
2015,05,21,05,48,12.00
2015,05,21,05,49,12.00
2015,05,21,05,50,12.00
2015,05,21,05,51,12.10
2015,05,21,05,52,12.10
2015,05,21,05,53,12.20
2015,05,21,05,54,12.20
2015,05,21,05,55,12.20
2015,05,21,05,56,12.20
2015,05,21,05,57,12.10
2015,05,21,05,58,12.00
2015,05,21,05,59,11.90
2015,05,21,06,00,11.90
2015,05,21,06,01,11.80
2015,05,21,06,02,11.80
2015,05,21,06,03,11.80
2015,05,21,06,04,11.80
2015,05,21,06,05,11.80
2015,05,21,06,06,11.70
2015,05,21,06,07,11.70
2015,05,21,06,08,11.70
2015,05,21,06,09,11.70
2015,05,21,06,10,11.70
2015,05,21,06,11,11.70
2015,05,21,06,12,11.70
2015,05,21,06,13,11.70
2015,05,21,06,14,11.70
2015,05,21,06,15,11.70
2015,05,21,06,16,11.70
2015,05,21,06,17,11.90
2015,05,21,06,18,11.90
2015,05,21,06,19,12.00
2015,05,21,06,20,12.10
2015,05,21,06,21,12.10
2015,05,21,06,22,12.20
2015,05,21,06,23,12.20
2015,05,21,06,24,12.20
2015,05,21,06,25,12.20
2015,05,21,06,26,12.20
2015,05,21,06,27,12.20
2015,05,21,06,28,12.20
2015,05,21,06,29,12.20
2015,05,21,06,30,12.20
2015,05,21,06,31,12.20
2015,05,21,06,32,12.20
2015,05,21,06,33,12.20
2015,05,21,06,34,12.20
2015,05,21,06,35,12.20
2015,05,21,06,36,12.30
2015,05,21,06,37,12.30
2015,05,21,06,38,12.40
2015,05,21,06,39,12.40
2015,05,21,06,40,12.50
2015,05,21,06,41,12.50
2015,05,21,06,42,12.60
2015,05,21,06,43,12.60
2015,05,21,06,44,12.70
2015,05,21,06,45,12.80
2015,05,21,06,46,12.80
2015,05,21,06,47,12.90
2015,05,21,06,48,12.90
2015,05,21,06,49,13.00
2015,05,21,06,50,13.00
2015,05,21,06,51,13.10
2015,05,21,06,52,13.10
2015,05,21,06,53,13.20
2015,05,21,06,54,13.30
2015,05,21,06,55,13.30
2015,05,21,06,56,13.30
2015,05,21,06,57,13.40
2015,05,21,06,58,13.50
2015,05,21,06,59,13.50
2015,05,21,07,00,13.60
2015,05,21,07,01,13.60
2015,05,21,07,02,13.70
2015,05,21,07,03,13.80
2015,05,21,07,04,13.80
2015,05,21,07,05,13.90
2015,05,21,07,06,13.90
2015,05,21,07,07,14.00
2015,05,21,07,08,14.10
2015,05,21,07,09,14.10
2015,05,21,07,10,14.20
2015,05,21,07,11,14.30
2015,05,21,07,12,14.30
2015,05,21,07,13,14.50
2015,05,21,07,14,14.60
2015,05,21,07,15,14.70
2015,05,21,07,16,14.80
2015,05,21,07,17,14.90
2015,05,21,07,18,15.00
2015,05,21,07,19,15.00
2015,05,21,07,20,15.10
2015,05,21,07,21,15.20
2015,05,21,07,22,15.30
2015,05,21,07,23,15.40
2015,05,21,07,24,15.40
2015,05,21,07,25,15.50
2015,05,21,07,26,15.60
2015,05,21,07,27,15.70
2015,05,21,07,28,15.80
2015,05,21,07,29,15.90
2015,05,21,07,30,16.00
2015,05,21,07,31,16.00
2015,05,21,07,32,16.10
2015,05,21,07,33,16.20
2015,05,21,07,34,16.20
2015,05,21,07,35,16.30
2015,05,21,07,36,16.30
2015,05,21,07,37,16.40
2015,05,21,07,38,16.40
2015,05,21,07,39,16.50
2015,05,21,07,40,16.50
2015,05,21,07,41,16.60
2015,05,21,07,42,16.60
2015,05,21,07,43,16.60
2015,05,21,07,44,16.70
2015,05,21,07,45,16.70
2015,05,21,07,46,16.80
2015,05,21,07,47,16.80
2015,05,21,07,48,16.90
2015,05,21,07,49,16.90
2015,05,21,07,50,16.90
2015,05,21,07,51,17.00
2015,05,21,07,52,17.00
2015,05,21,07,53,17.00
2015,05,21,07,54,17.00
2015,05,21,07,55,17.00
2015,05,21,07,56,17.00
2015,05,21,07,57,17.00
2015,05,21,07,58,17.00
2015,05,21,07,59,17.00
2015,05,21,08,00,17.10
2015,05,21,08,01,17.10
2015,05,21,08,02,17.10
2015,05,21,08,03,17.10
2015,05,21,08,04,17.10
2015,05,21,08,05,17.20
2015,05,21,08,06,17.20
2015,05,21,08,07,17.20
2015,05,21,08,08,17.20
2015,05,21,08,09,17.10
2015,05,21,08,10,17.10
2015,05,21,08,11,17.10
2015,05,21,08,12,17.20
2015,05,21,08,13,17.20
2015,05,21,08,14,17.20
2015,05,21,08,15,17.20
2015,05,21,08,16,17.20
2015,05,21,08,17,17.20
2015,05,21,08,18,17.20
2015,05,21,08,19,17.20
2015,05,21,08,20,17.20
2015,05,21,08,21,17.20
2015,05,21,08,22,17.20
2015,05,21,08,23,17.20
2015,05,21,08,24,17.20
2015,05,21,08,25,17.10
2015,05,21,08,26,17.10
2015,05,21,08,27,17.10
2015,05,21,08,28,17.10
2015,05,21,08,29,17.20
2015,05,21,08,30,17.20
2015,05,21,08,31,17.20
2015,05,21,08,32,17.20
2015,05,21,08,33,17.20
2015,05,21,08,34,17.20
2015,05,21,08,35,17.20
2015,05,21,08,36,17.20
2015,05,21,08,37,17.20
2015,05,21,08,38,17.20
2015,05,21,08,39,17.30
2015,05,21,08,40,17.30
2015,05,21,08,41,17.40
2015,05,21,08,42,17.40
2015,05,21,08,43,17.40
2015,05,21,08,44,17.50
2015,05,21,08,45,17.50
2015,05,21,08,46,17.60
2015,05,21,08,47,17.60
2015,05,21,08,48,17.70
2015,05,21,08,49,17.70
2015,05,21,08,50,17.80
2015,05,21,08,51,17.90
2015,05,21,08,52,18.00
2015,05,21,08,53,18.10
2015,05,21,08,54,18.20
2015,05,21,08,55,18.20
2015,05,21,08,56,18.30
2015,05,21,08,57,18.30
2015,05,21,08,58,18.30
2015,05,21,08,59,18.30
2015,05,21,09,00,18.20
2015,05,21,09,01,18.20
2015,05,21,09,02,18.10
2015,05,21,09,03,18.10
2015,05,21,09,04,18.10
2015,05,21,09,05,18.10
2015,05,21,09,06,18.10
2015,05,21,09,07,18.20
2015,05,21,09,08,18.20
2015,05,21,09,09,18.20
2015,05,21,09,10,18.30
2015,05,21,09,11,18.30
2015,05,21,09,12,18.30
2015,05,21,09,13,18.30
2015,05,21,09,14,18.30
2015,05,21,09,15,18.30
2015,05,21,09,16,18.30
2015,05,21,09,17,18.20
2015,05,21,09,18,18.20
2015,05,21,09,19,18.30
2015,05,21,09,20,18.20
2015,05,21,09,21,18.30
2015,05,21,09,22,18.30
2015,05,21,09,23,18.30
2015,05,21,09,24,18.30
2015,05,21,09,25,18.30
2015,05,21,09,26,18.40
2015,05,21,09,27,18.40
2015,05,21,09,28,18.50
2015,05,21,09,29,18.50
2015,05,21,09,30,18.60
2015,05,21,09,31,18.60
2015,05,21,09,32,18.60
2015,05,21,09,33,18.60
2015,05,21,09,34,18.60
2015,05,21,09,35,18.60
2015,05,21,09,36,18.50
2015,05,21,09,37,18.50
2015,05,21,09,38,18.50
2015,05,21,09,39,18.50
2015,05,21,09,40,18.40
2015,05,21,09,41,18.40
2015,05,21,09,42,18.40
2015,05,21,09,43,18.40
2015,05,21,09,44,18.40
2015,05,21,09,45,18.40
2015,05,21,09,46,18.40
2015,05,21,09,47,18.50
2015,05,21,09,48,18.60
2015,05,21,09,49,18.50
2015,05,21,09,50,18.50
2015,05,21,09,51,18.50
2015,05,21,09,52,18.50
2015,05,21,09,53,18.40
2015,05,21,09,54,18.40
2015,05,21,09,55,18.40
2015,05,21,09,56,18.30
2015,05,21,09,57,18.40
2015,05,21,09,58,18.40
2015,05,21,09,59,18.40
2015,05,21,10,00,18.40
2015,05,21,10,01,18.40
2015,05,21,10,02,18.50
2015,05,21,10,03,18.50
2015,05,21,10,04,18.50
2015,05,21,10,05,18.40
2015,05,21,10,06,18.40
2015,05,21,10,07,18.40
2015,05,21,10,08,18.40
2015,05,21,10,09,18.50
2015,05,21,10,10,18.50
2015,05,21,10,11,18.60
2015,05,21,10,12,18.60
2015,05,21,10,13,18.60
2015,05,21,10,14,18.70
2015,05,21,10,15,18.70
2015,05,21,10,16,18.60
2015,05,21,10,17,18.70
2015,05,21,10,18,18.70
2015,05,21,10,19,18.70
2015,05,21,10,20,18.70
2015,05,21,10,21,18.80
2015,05,21,10,22,18.90
2015,05,21,10,23,19.00
2015,05,21,10,24,19.20
2015,05,21,10,25,19.30
2015,05,21,10,26,19.40
2015,05,21,10,27,19.50
2015,05,21,10,28,19.60
2015,05,21,10,29,19.60
2015,05,21,10,30,19.70
2015,05,21,10,31,19.70
2015,05,21,10,32,19.70
2015,05,21,10,33,19.70
2015,05,21,10,34,19.70
2015,05,21,10,35,19.80
2015,05,21,10,36,19.90
2015,05,21,10,37,19.90
2015,05,21,10,38,19.80
2015,05,21,10,39,19.80
2015,05,21,10,40,19.80
2015,05,21,10,41,19.80
2015,05,21,10,42,19.90
2015,05,21,10,43,20.00
2015,05,21,10,44,20.10
2015,05,21,10,45,20.10
2015,05,21,10,46,20.10
2015,05,21,10,47,20.00
2015,05,21,10,48,20.00
2015,05,21,10,49,19.90
2015,05,21,10,50,19.80
2015,05,21,10,51,19.80
2015,05,21,10,52,19.80
2015,05,21,10,53,19.80
2015,05,21,10,54,19.80
2015,05,21,10,55,19.80
2015,05,21,10,56,19.80
2015,05,21,10,57,19.80
2015,05,21,10,58,19.70
2015,05,21,10,59,19.70
2015,05,21,11,00,19.60
2015,05,21,11,01,19.50
2015,05,21,11,02,19.50
2015,05,21,11,03,19.40
2015,05,21,11,04,19.40
2015,05,21,11,05,19.40
2015,05,21,11,06,19.30
2015,05,21,11,07,19.30
2015,05,21,11,08,19.30
2015,05,21,11,09,19.30
2015,05,21,11,10,19.30
2015,05,21,11,11,19.20
2015,05,21,11,12,19.20
2015,05,21,11,13,19.20
2015,05,21,11,14,19.20
2015,05,21,11,15,19.30
2015,05,21,11,16,19.30
2015,05,21,11,17,19.40
2015,05,21,11,18,19.50
2015,05,21,11,19,19.60
2015,05,21,11,20,19.70
2015,05,21,11,21,19.70
2015,05,21,11,22,19.80
2015,05,21,11,23,19.80
2015,05,21,11,24,19.80
2015,05,21,11,25,19.80
2015,05,21,11,26,19.90
2015,05,21,11,27,19.90
2015,05,21,11,28,20.00
2015,05,21,11,29,19.90
2015,05,21,11,30,19.90
2015,05,21,11,31,19.80
2015,05,21,11,32,19.70
2015,05,21,11,33,19.60
2015,05,21,11,34,19.50
2015,05,21,11,35,19.40
2015,05,21,11,36,19.40
2015,05,21,11,37,19.40
2015,05,21,11,38,19.50
2015,05,21,11,39,19.50
2015,05,21,11,40,19.40
2015,05,21,11,41,19.40
2015,05,21,11,42,19.40
2015,05,21,11,43,19.40
2015,05,21,11,44,19.40
2015,05,21,11,45,19.50
2015,05,21,11,46,19.50
2015,05,21,11,47,19.60
2015,05,21,11,48,19.70
2015,05,21,11,49,19.70
2015,05,21,11,50,19.80
2015,05,21,11,51,19.80
2015,05,21,11,52,19.90
2015,05,21,11,53,19.80
2015,05,21,11,54,19.70
2015,05,21,11,55,19.70
2015,05,21,11,56,19.80
2015,05,21,11,57,19.80
2015,05,21,11,58,19.80
2015,05,21,11,59,19.80
2015,05,21,12,00,19.80
2015,05,21,12,01,19.90
2015,05,21,12,02,20.00
2015,05,21,12,03,20.10
2015,05,21,12,04,20.20
2015,05,21,12,05,20.30
2015,05,21,12,06,20.30
2015,05,21,12,07,20.30
2015,05,21,12,08,20.30
2015,05,21,12,09,20.30
2015,05,21,12,10,20.30
2015,05,21,12,11,20.30
2015,05,21,12,12,20.40
2015,05,21,12,13,20.50
2015,05,21,12,14,20.60
2015,05,21,12,15,20.70
2015,05,21,12,16,20.80
2015,05,21,12,17,20.80
2015,05,21,12,18,20.80
2015,05,21,12,19,20.70
2015,05,21,12,20,20.70
2015,05,21,12,21,20.70
2015,05,21,12,22,20.70
2015,05,21,12,23,20.70
2015,05,21,12,24,20.80
2015,05,21,12,25,20.80
2015,05,21,12,26,20.90
2015,05,21,12,27,21.00
2015,05,21,12,28,21.10
2015,05,21,12,29,21.10
2015,05,21,12,30,21.20
2015,05,21,12,31,21.20
2015,05,21,12,32,21.20
2015,05,21,12,33,21.10
2015,05,21,12,34,21.10
2015,05,21,12,35,21.00
2015,05,21,12,36,21.10
2015,05,21,12,37,21.10
2015,05,21,12,38,21.20
2015,05,21,12,39,21.20
2015,05,21,12,40,21.20
2015,05,21,12,41,21.30
2015,05,21,12,42,21.30
2015,05,21,12,43,21.30
2015,05,21,12,44,21.30
2015,05,21,12,45,21.40
2015,05,21,12,46,21.40
2015,05,21,12,47,21.40
2015,05,21,12,48,21.50
2015,05,21,12,49,21.50
2015,05,21,12,50,21.60
2015,05,21,12,51,21.70
2015,05,21,12,52,21.80
2015,05,21,12,53,21.80
2015,05,21,12,54,22.00
2015,05,21,12,55,22.10
2015,05,21,12,56,22.20
2015,05,21,12,57,22.20
2015,05,21,12,58,22.30
2015,05,21,12,59,22.30
2015,05,21,13,00,22.30
2015,05,21,13,01,22.30
2015,05,21,13,02,22.20
2015,05,21,13,03,22.20
2015,05,21,13,04,22.20
2015,05,21,13,05,22.10
2015,05,21,13,06,22.10
2015,05,21,13,07,22.10
2015,05,21,13,08,22.00
2015,05,21,13,09,22.00
2015,05,21,13,10,22.10
2015,05,21,13,11,22.10
2015,05,21,13,12,22.10
2015,05,21,13,13,22.10
2015,05,21,13,14,22.10
2015,05,21,13,15,22.20
2015,05,21,13,16,22.10
2015,05,21,13,17,22.20
2015,05,21,13,18,22.20
2015,05,21,13,19,22.30
2015,05,21,13,20,22.30
2015,05,21,13,21,22.20
2015,05,21,13,22,22.10
2015,05,21,13,23,22.10
2015,05,21,13,24,22.10
2015,05,21,13,25,22.10
2015,05,21,13,26,22.00
2015,05,21,13,27,22.00
2015,05,21,13,28,21.80
2015,05,21,13,29,21.70
2015,05,21,13,30,21.60
2015,05,21,13,31,21.50
2015,05,21,13,32,21.50
2015,05,21,13,33,21.50
2015,05,21,13,34,21.40
2015,05,21,13,35,21.40
2015,05,21,13,36,21.40
2015,05,21,13,37,21.40
2015,05,21,13,38,21.40
2015,05,21,13,39,21.50
2015,05,21,13,40,21.50
2015,05,21,13,41,21.50
2015,05,21,13,42,21.50
2015,05,21,13,43,21.60
2015,05,21,13,44,21.70
2015,05,21,13,45,21.80
2015,05,21,13,46,21.90
2015,05,21,13,47,21.90
2015,05,21,13,48,21.90
2015,05,21,13,49,21.80
2015,05,21,13,50,21.80
2015,05,21,13,51,21.80
2015,05,21,13,52,21.80
2015,05,21,13,53,21.80
2015,05,21,13,54,21.80
2015,05,21,13,55,21.80
2015,05,21,13,56,21.80
2015,05,21,13,57,21.80
2015,05,21,13,58,21.80
2015,05,21,13,59,21.80
2015,05,21,14,00,21.80
2015,05,21,14,01,21.90
2015,05,21,14,02,21.90
2015,05,21,14,03,22.00
2015,05,21,14,04,22.10
2015,05,21,14,05,22.10
2015,05,21,14,06,22.20
2015,05,21,14,07,22.30
2015,05,21,14,08,22.30
2015,05,21,14,09,22.40
2015,05,21,14,10,22.40
2015,05,21,14,11,22.40
2015,05,21,14,12,22.40
2015,05,21,14,13,22.40
2015,05,21,14,14,22.40
2015,05,21,14,15,22.40
2015,05,21,14,16,22.40
2015,05,21,14,17,22.40
2015,05,21,14,18,22.40
2015,05,21,14,19,22.30
2015,05,21,14,20,22.40
2015,05,21,14,21,22.40
2015,05,21,14,22,22.40
2015,05,21,14,23,22.40
2015,05,21,14,24,22.40
2015,05,21,14,25,22.50
2015,05,21,14,26,22.50
2015,05,21,14,27,22.50
2015,05,21,14,28,22.50
2015,05,21,14,29,22.50
2015,05,21,14,30,22.50
2015,05,21,14,31,22.40
2015,05,21,14,32,22.50
2015,05,21,14,33,22.50
2015,05,21,14,34,22.60
2015,05,21,14,35,22.60
2015,05,21,14,36,22.60
2015,05,21,14,37,22.60
2015,05,21,14,38,22.70
2015,05,21,14,39,22.80
2015,05,21,14,40,22.80
2015,05,21,14,41,22.70
2015,05,21,14,42,22.70
2015,05,21,14,43,22.60
2015,05,21,14,44,22.60
2015,05,21,14,45,22.60
2015,05,21,14,46,22.50
2015,05,21,14,47,22.40
2015,05,21,14,48,22.40
2015,05,21,14,49,22.40
2015,05,21,14,50,22.50
2015,05,21,14,51,22.60
2015,05,21,14,52,22.60
2015,05,21,14,53,22.70
2015,05,21,14,54,22.70
2015,05,21,14,55,22.80
2015,05,21,14,56,22.80
2015,05,21,14,57,22.80
2015,05,21,14,58,22.80
2015,05,21,14,59,22.80
2015,05,21,15,00,22.90
2015,05,21,15,01,23.00
2015,05,21,15,02,23.10
2015,05,21,15,03,23.20
2015,05,21,15,04,23.20
2015,05,21,15,05,23.20
2015,05,21,15,06,23.20
2015,05,21,15,07,23.20
2015,05,21,15,08,23.20
2015,05,21,15,09,23.10
2015,05,21,15,10,23.10
2015,05,21,15,11,23.10
2015,05,21,15,12,23.10
2015,05,21,15,13,23.20
2015,05,21,15,14,23.30
2015,05,21,15,15,23.30
2015,05,21,15,16,23.40
2015,05,21,15,17,23.30
2015,05,21,15,18,23.30
2015,05,21,15,19,23.30
2015,05,21,15,20,23.20
2015,05,21,15,21,23.10
2015,05,21,15,22,23.10
2015,05,21,15,23,23.10
2015,05,21,15,24,23.20
2015,05,21,15,25,23.30
2015,05,21,15,26,23.30
2015,05,21,15,27,23.40
2015,05,21,15,28,23.40
2015,05,21,15,29,23.50
2015,05,21,15,30,23.50
2015,05,21,15,31,23.60
2015,05,21,15,32,23.60
2015,05,21,15,33,23.60
2015,05,21,15,34,23.60
2015,05,21,15,35,23.60
2015,05,21,15,36,23.60
2015,05,21,15,37,23.60
2015,05,21,15,38,23.60
2015,05,21,15,39,23.50
2015,05,21,15,40,23.60
2015,05,21,15,41,23.60
2015,05,21,15,42,23.70
2015,05,21,15,43,23.80
2015,05,21,15,44,23.80
2015,05,21,15,45,23.80
2015,05,21,15,46,23.80
2015,05,21,15,47,23.80
2015,05,21,15,48,23.90
2015,05,21,15,49,23.90
2015,05,21,15,50,23.90
2015,05,21,15,51,23.90
2015,05,21,15,52,23.90
2015,05,21,15,53,23.80
2015,05,21,15,54,23.80
2015,05,21,15,55,23.80
2015,05,21,15,56,23.90
2015,05,21,15,57,23.90
2015,05,21,15,58,24.00
2015,05,21,15,59,24.10
2015,05,21,16,00,24.00
2015,05,21,16,01,23.90
2015,05,21,16,02,23.90
2015,05,21,16,03,23.80
2015,05,21,16,04,23.90
2015,05,21,16,05,23.90
2015,05,21,16,06,23.90
2015,05,21,16,07,23.90
2015,05,21,16,08,23.90
2015,05,21,16,09,23.90
2015,05,21,16,10,23.80
2015,05,21,16,11,23.80
2015,05,21,16,12,23.80
2015,05,21,16,13,23.80
2015,05,21,16,14,23.90
2015,05,21,16,15,24.00
2015,05,21,16,16,24.10
2015,05,21,16,17,24.20
2015,05,21,16,18,24.20
2015,05,21,16,19,24.20
2015,05,21,16,20,24.30
2015,05,21,16,21,24.20
2015,05,21,16,22,24.30
2015,05,21,16,23,24.30
2015,05,21,16,24,24.40
2015,05,21,16,25,24.50
2015,05,21,16,26,24.60
2015,05,21,16,27,24.50
2015,05,21,16,28,24.40
2015,05,21,16,29,24.40
2015,05,21,16,30,24.40
2015,05,21,16,31,24.40
2015,05,21,16,32,24.40
2015,05,21,16,33,24.40
2015,05,21,16,34,24.40
2015,05,21,16,35,24.30
2015,05,21,16,36,24.30
2015,05,21,16,37,24.20
2015,05,21,16,38,24.20
2015,05,21,16,39,24.30
2015,05,21,16,40,24.30
2015,05,21,16,41,24.30
2015,05,21,16,42,24.30
2015,05,21,16,43,24.30
2015,05,21,16,44,24.30
2015,05,21,16,45,24.20
2015,05,21,16,46,24.20
2015,05,21,16,47,24.10
2015,05,21,16,48,24.00
2015,05,21,16,49,24.00
2015,05,21,16,50,23.90
2015,05,21,16,51,23.90
2015,05,21,16,52,23.80
2015,05,21,16,53,23.80
2015,05,21,16,54,23.80
2015,05,21,16,55,23.80
2015,05,21,16,56,23.90
2015,05,21,16,57,23.90
2015,05,21,16,58,24.00
2015,05,21,16,59,24.10
2015,05,21,17,00,24.20
2015,05,21,17,01,24.40
2015,05,21,17,02,24.50
2015,05,21,17,03,24.70
2015,05,21,17,04,24.80
2015,05,21,17,05,24.90
2015,05,21,17,06,24.90
2015,05,21,17,07,24.90
2015,05,21,17,08,24.90
2015,05,21,17,09,24.90
2015,05,21,17,10,24.80
2015,05,21,17,11,24.80
2015,05,21,17,12,24.70
2015,05,21,17,13,24.70
2015,05,21,17,14,24.70
2015,05,21,17,15,24.70
2015,05,21,17,16,24.70
2015,05,21,17,17,24.80
2015,05,21,17,18,24.80
2015,05,21,17,19,24.80